College Station, TX

9:28 AM CST on December 14, 2017 (GMT -0600)
Easterwood

Weather History for KCLL - December, 2013

Change the Weather History Date:

Tuesday, December 10, 2013

  Actual Average Record
Temperature  
Mean Temperature 37 °F 53 °F  
Max Temperature 45 °F 63 °F 81 °F (1938)
Min Temperature 28 °F 43 °F 19 °F (1978)
Degree Days  
Heating Degree Days 28 13  
Month to date heating degree days 162 117  
Since 1 July heating degree days 464 342  
Cooling Degree Days 0 1  
Month to date cooling degree days 7 10  
Year to date cooling degree days 3275 3083  
Moisture  
Dew Point 25 °F    
Average Humidity 67    
Maximum Humidity 89    
Minimum Humidity 45    
Precipitation  
Precipitation 0.00 in 0.10 in 1.88 in (1911)
Month to date precipitation 0.06 1.06  
Year to date precipitation 38.65 37.89  
Sea Level Pressure  
Sea Level Pressure 30.42 in    
Wind  
Wind Speed 8 mph (North)    
Max Wind Speed 15 mph    
Max Gust Speed 20 mph    
Visibility 10 miles    
Events      
T = Trace of Precipitation, MM = Missing Value Source: NWS Daily Summary

Daily Weather History Graph

Daily Weather History Graph

Search for Another Location

Airport or City:

Trip Planner

Search our weather history database for the weather conditions in past years. The results will help you decide how hot, cold, wet, or windy it might be!

Date:

Astronomy

Dec. 10, 2013 Rise Set
Actual Time 7:12 AM CST 5:24 PM CST
Civil Twilight 6:45 AM CST 5:51 PM CST
Nautical Twilight 6:15 AM CST 6:21 PM CST
Astronomical Twilight 5:46 AM CST 6:50 PM CST
Moon 1:05 PM CST (12/10) 12:54 AM CST (12/10)
Length of Visible Light 11h 05m
Length of Day
10h 12m
Waxing Gibbous, 62% of the Moon is Illuminated
Dec 10
Waxing Gibbous
Dec 17
Full
Dec 25
Last Quarter
Jan 1
New
Jan 7
First Quarter

Hourly Weather History & Observations

Time (CST) Temp. Windchill Dew Point Humidity Pressure Visibility Wind Dir Wind Speed Gust Speed Precip Events Conditions
12:22 AM 33.8 °F 25.8 °F 28.4 °F 81% 30.38 in 7.0 mi NNW 10.4 mph - N/A   Scattered Clouds
12:53 AM 33.1 °F 23.9 °F 28.9 °F 85% 30.38 in 8.0 mi North 12.7 mph - N/A   Clear
1:53 AM 32.0 °F 23.6 °F 28.0 °F 85% 30.40 in 8.0 mi NNW 10.4 mph - N/A   Clear
2:53 AM 30.9 °F 21.7 °F 27.0 °F 85% 30.42 in 8.0 mi NNW 11.5 mph - N/A   Clear
3:53 AM 30.9 °F 21.2 °F 27.0 °F 85% 30.42 in 8.0 mi NNW 12.7 mph - N/A   Clear
4:53 AM 30.0 °F 20.5 °F 25.0 °F 82% 30.42 in 10.0 mi NNW 11.5 mph - N/A   Clear
5:53 AM 28.9 °F 21.9 °F 24.1 °F 82% 30.44 in 10.0 mi NNW 6.9 mph - N/A   Clear
6:53 AM 28.0 °F 20.8 °F 21.9 °F 78% 30.46 in 10.0 mi North 6.9 mph - N/A   Clear
7:53 AM 28.9 °F 21.1 °F 21.9 °F 75% 30.48 in 10.0 mi NNW 8.1 mph - N/A   Clear
8:53 AM 30.9 °F 22.2 °F 21.9 °F 69% 30.50 in 10.0 mi North 10.4 mph - N/A   Clear
9:53 AM 33.1 °F 23.9 °F 23.0 °F 66% 30.51 in 10.0 mi North 12.7 mph - N/A   Clear
10:53 AM 36.0 °F 28.0 °F 23.0 °F 59% 30.50 in 10.0 mi NNW 11.5 mph - N/A   Clear
11:53 AM 37.9 °F 31.5 °F 23.0 °F 55% 30.48 in 10.0 mi North 9.2 mph - N/A   Clear
12:53 PM 41.0 °F 35.8 °F 24.1 °F 51% 30.45 in 10.0 mi North 8.1 mph - N/A   Clear
1:53 PM 43.0 °F 37.7 °F 24.1 °F 47% 30.41 in 10.0 mi North 9.2 mph - N/A   Clear
2:53 PM 45.0 °F 39.7 °F 24.1 °F 44% 30.40 in 10.0 mi North 10.4 mph - N/A   Clear
3:53 PM 45.0 °F 40.1 °F 24.1 °F 44% 30.38 in 10.0 mi North 9.2 mph - N/A   Clear
4:53 PM 43.0 °F 39.5 °F 24.1 °F 47% 30.38 in 10.0 mi North 5.8 mph - N/A   Clear
5:53 PM 37.9 °F 34.4 °F 26.1 °F 62% 30.37 in 10.0 mi North 4.6 mph - N/A   Clear
6:53 PM 37.0 °F 33.3 °F 26.1 °F 65% 30.37 in 10.0 mi North 4.6 mph - N/A   Clear
7:53 PM 33.1 °F - 27.0 °F 78% 30.38 in 10.0 mi Calm Calm - N/A   Clear
8:53 PM 33.1 °F - 27.0 °F 78% 30.39 in 10.0 mi Calm Calm - N/A   Clear
9:53 PM 32.0 °F - 26.1 °F 79% 30.39 in 10.0 mi Calm Calm - N/A   Clear
10:53 PM 32.0 °F 28.7 °F 27.0 °F 82% 30.39 in 10.0 mi North 3.5 mph - N/A   Clear
11:53 PM 30.9 °F - 26.1 °F 82% 30.38 in 10.0 mi Calm Calm - N/A   Clear